Location: Finney State Fishing Lake and Wildlife Area
(38.1834°N, 100.3310°W)
Time: 03:32:15
(UTC+00:00)

X-37B - Pass Details

Date: 07 December 2023
Orbit: 277 x 277 km, 45.0° (Epoch: 01 November)

Event Time Altitude Azimuth Distance (km) Brightness Sun altitude
Rises 00:35:11 0° 300° (WNW) 1,916 4.8 -14.2°
Reaches altitude 10° 00:37:26 10° 321° (NW) 1,102 3.2 -14.6°
Enters shadow 00:38:56 18° 357° (N) 784 2.0 -14.9°
